CZ-6A DEB

Satellite information

Favourite Embed

Satellite Type and Status

DEBRISIN ORBIT

Key statistics

Satellite CZ-6A DEB at a glance.

Uptime

1076

Days in orbit

Revolutions

≈ 14.8

Per day

Orbit

SSO

Sun Synchronous Orbit

Inclination

98.6

Latest

Satellite identification and parameters

Extended collection of information and parameters for CZ-6A DEB.

Object identification

Identified? True

Debris? True

Object name: CZ-6A DEB

International designator: 2022-151AD

Object number (NORAD): 54286

Object ID (CCSDS): 54286

Country: PEOPLES REPUBLIC OF CHINA (PRC)

Current information (Y/N): Y

RCS size: SMALL

Orbital parameters

Period: 97.54 minutes

Inclination: 98.6163 deg

SMA: 7019.126 km

Apoapsis: 705.808 km

Periapsis: 576.174 km

RAAN: 0.9435 deg

Eccentricy: 0.0092344

Argument of periapsis: 225.5013 deg

Mean anomaly: 133.8621 deg

Mean motion: 14.76312211 rev/day

Mean motion (dot): 0.00023282 rev/day2

B* drag term: 0.0031291 1/REarth

Two-line elements (TLE)

Creation date: Oct. 22, 2025, 12:06 a.m.

Reference frame: TEME

Reference center: EARTH

Epoch: Oct. 21, 2025, 6:22 p.m. UTC

TLE line 0: 0 CZ-6A DEB

TLE line 1: 1 54286U 22151AD 25294.76557176 .00023282 00000-0 31291-2 0 9997

TLE line 2: 2 54286 98.6163 0.9435 0092344 225.5013 133.8621 14.76312211156106

Live tracking on map

Real-time ground track for satellite CZ-6A DEB.

In-orbit conjunctions

A list of the most updated potential collisions computed for object CZ-6A DEB.

Target Orbit TCA Probability of collision Miss distance Type
FENGYUN 1C DEB SSO 2025-07-16 19:32:20 0.0001316959 41.0 (m) DEBRIS
CZ-6A DEB LEO 2024-11-11 15:59:37 0.0001145544 184.0 (m) DEBRIS

Associated space launch

Chinese satellite reported for atmospheric/ocean/environmental/spatial parameter research purposes, details TBD.

CZ-6A DEB was lifted into orbit during the mission ‘Long March 6A | Yunhai 3’, on board a Long March 6A space rocket.

The launch took place on Nov. 11, 2022, 10:52 p.m. from Launch Complex 9A.

For more information about the launch, click the button.

Launch to space Long March 6A | Yunhai 3
Long March 6A | Yunhai 3

Agency: N/A

Status: Launch Successful

Launch date: Nov. 11, 2022, 10:52 p.m. UTC

Rocket: Long March 6A

Launch pad: Launch Complex 9A

Location: Taiyuan Satellite Launch Center, People's Republic of China

...

Latest news about this satellite

There are no fresh news available about this satellite. Check back as we update our databases every day.


Newsletter sign-up

Weekly statistics, charts and insights to help you stay on top of the space industry.